Cumberland, WV

5:03 AM EDT on September 24, 2017 (GMT -0400)
Greater Cumberland Regional

Weather History for KCBE - September, 2013

Change the Weather History Date:

Saturday, September 14, 2013

  Actual Average (KMRB) Record (KMRB)
Temperature  
Mean Temperature 55 °F -  
Max Temperature 66 °F 80 °F 100 °F (1931)
Min Temperature 44 °F 56 °F 34 °F (1964)
Degree Days  
Heating Degree Days 10    
Growing Degree Days 5 (Base 50)    
Moisture  
Dew Point 43 °F    
Average Humidity 68    
Maximum Humidity 100    
Minimum Humidity 35    
Precipitation  
Precipitation 0.00 in - - ()
Sea Level Pressure  
Sea Level Pressure 30.14 in    
Wind  
Wind Speed 2 mph (NNW)    
Max Wind Speed 10 mph    
Max Gust Speed -    
Visibility 10 miles    
Events      
Averages and records for this station are not official NWS values.
T = Trace of Precipitation, MM = Missing Value Source: NWS Daily Summary

Daily Weather History Graph

Daily Weather History Graph

Search for Another Location

Airport or City:

Trip Planner

Search our weather history database for the weather conditions in past years. The results will help you decide how hot, cold, wet, or windy it might be!

Date:

Astronomy

Sep. 14, 2013 Rise Set
Actual Time 6:55 AM EDT 7:24 PM EDT
Civil Twilight 6:28 AM EDT 7:51 PM EDT
Nautical Twilight 5:56 AM EDT 8:23 PM EDT
Astronomical Twilight 5:23 AM EDT 8:56 PM EDT
Moon 4:04 PM EDT (9/14) 1:26 AM EDT (9/14)
Length of Visible Light 13h 23m
Length of Day
12h 29m
Waxing Gibbous, 72% of the Moon is Illuminated
Sep 14
Waxing Gibbous
Sep 19
Full
Sep 26
Last Quarter
Oct 4
New
Oct 11
First Quarter

Hourly Weather History & Observations

Time (EDT) Temp. Windchill Dew Point Humidity Pressure Visibility Wind Dir Wind Speed Gust Speed Precip Events Conditions
12:11 AM 53.6 °F - 44.6 °F 72% 30.05 in 10.0 mi Calm Calm - N/A   Scattered Clouds
12:31 AM 53.6 °F - 42.8 °F 67% 30.05 in 10.0 mi NW 4.6 mph - N/A   Clear
12:51 AM 51.8 °F - 44.6 °F 76% 30.06 in 10.0 mi Calm Calm - N/A   Clear
1:11 AM 50.0 °F - 44.6 °F 82% 30.07 in 10.0 mi Calm Calm - N/A   Clear
1:31 AM 51.8 °F - 44.6 °F 76% 30.07 in 10.0 mi Calm Calm - N/A   Mostly Cloudy
1:51 AM 51.8 °F - 44.6 °F 76% 30.07 in 10.0 mi Calm Calm - N/A   Scattered Clouds
2:11 AM 50.0 °F - 44.6 °F 82% 30.07 in 10.0 mi Calm Calm - N/A   Clear
2:31 AM 50.0 °F - 44.6 °F 82% 30.08 in 10.0 mi Calm Calm - N/A   Scattered Clouds
2:51 AM 50.0 °F - 44.6 °F 82% 30.07 in 10.0 mi Calm Calm - N/A   Scattered Clouds
3:11 AM 46.4 °F - 44.6 °F 93% 30.07 in 10.0 mi Calm Calm - N/A   Clear
3:31 AM 48.2 °F - 44.6 °F 87% 30.07 in 10.0 mi Calm Calm - N/A   Clear
3:51 AM 46.4 °F - 44.6 °F 93% 30.07 in 10.0 mi Calm Calm - N/A   Clear
4:11 AM 46.4 °F - 42.8 °F 87% 30.07 in 10.0 mi Calm Calm - N/A   Clear
4:31 AM 44.6 °F - 42.8 °F 93% 30.08 in 10.0 mi Calm Calm - N/A   Clear
4:51 AM 46.4 °F - 44.6 °F 93% - 10.0 mi Calm Calm - N/A   Clear
5:11 AM 44.6 °F 43.1 °F 42.8 °F 93% 30.08 in 10.0 mi ENE 3.5 mph - N/A   Clear
5:31 AM 44.6 °F - 42.8 °F 93% 30.09 in 10.0 mi Calm Calm - N/A   Scattered Clouds
5:51 AM 44.6 °F - 42.8 °F 93% 30.09 in 10.0 mi Calm Calm - N/A   Mostly Cloudy
6:11 AM 46.4 °F - 44.6 °F 93% 30.10 in 10.0 mi Calm Calm - N/A   Overcast
6:31 AM 46.4 °F - 44.6 °F 93% 30.10 in 10.0 mi Calm Calm - N/A   Overcast
6:51 AM 46.4 °F - 44.6 °F 93% 30.11 in 10.0 mi Calm Calm - N/A   Overcast
7:11 AM 44.6 °F - 44.6 °F 100% 30.12 in 10.0 mi Calm Calm - N/A   Overcast
7:31 AM 46.4 °F - 44.6 °F 93% 30.13 in 10.0 mi Calm Calm - N/A   Overcast
7:52 AM 46.4 °F - 44.6 °F 93% 30.14 in 10.0 mi Calm Calm - N/A   Overcast
8:12 AM 46.4 °F - 44.6 °F 93% 30.15 in 10.0 mi Calm Calm - N/A   Overcast
8:32 AM 46.4 °F - 46.4 °F 100% 30.15 in 10.0 mi Calm Calm - N/A   Overcast
8:52 AM 48.2 °F - 46.4 °F 93% 30.15 in 10.0 mi Calm Calm - N/A   Overcast
9:12 AM 50.0 °F - 46.4 °F 87% 30.16 in 10.0 mi Calm Calm - N/A   Overcast
9:32 AM 50.0 °F - 46.4 °F 87% 30.17 in 10.0 mi Calm Calm - N/A   Overcast
9:52 AM 50.0 °F - 46.4 °F 87% 30.17 in 10.0 mi Calm Calm - N/A   Overcast
10:12 AM 51.8 °F - 46.4 °F 82% 30.17 in 10.0 mi Calm Calm - N/A   Overcast
10:32 AM 53.6 °F - 44.6 °F 72% 30.18 in 10.0 mi Calm Calm - N/A   Overcast
10:52 AM 53.6 °F - 44.6 °F 72% 30.18 in 10.0 mi Calm Calm - N/A   Overcast
11:12 AM 55.4 °F - 44.6 °F 67% 30.18 in 10.0 mi Calm Calm - N/A   Overcast
11:32 AM 55.4 °F - 42.8 °F 63% 30.18 in 10.0 mi Calm Calm - N/A   Overcast
11:52 AM 59.0 °F - 39.2 °F 48% 30.18 in 10.0 mi NNW 3.5 mph - N/A   Overcast
12:12 PM 59.0 °F - 39.2 °F 48% 30.18 in 10.0 mi North 6.9 mph - N/A   Overcast
12:32 PM 59.0 °F - 37.4 °F 45% 30.18 in 10.0 mi North 6.9 mph - N/A   Overcast
12:52 PM 59.0 °F - 37.4 °F 45% 30.18 in 10.0 mi NW 8.1 mph - N/A   Overcast
1:12 PM 60.8 °F - 39.2 °F 45% 30.17 in 10.0 mi NNW 9.2 mph - N/A   Mostly Cloudy
1:32 PM 60.8 °F - 39.2 °F 45% 30.17 in 10.0 mi West 5.8 mph - N/A   Scattered Clouds
1:52 PM 60.8 °F - 37.4 °F 42% 30.16 in 10.0 mi North 8.1 mph - N/A   Scattered Clouds
2:12 PM 62.6 °F - 39.2 °F 42% 30.15 in 10.0 mi NW 5.8 mph - N/A   Clear
2:32 PM 62.6 °F - 41.0 °F 45% 30.15 in 10.0 mi North 6.9 mph - N/A   Clear
2:52 PM 62.6 °F - 39.2 °F 42% 30.14 in 10.0 mi North 6.9 mph - N/A   Clear
3:12 PM 64.4 °F - 41.0 °F 42% 30.13 in 10.0 mi NNE 8.1 mph - N/A   Clear
3:32 PM 64.4 °F - 41.0 °F 42% 30.13 in 10.0 mi North 3.5 mph - N/A   Clear
3:52 PM 66.2 °F - 41.0 °F 40% 30.13 in 10.0 mi NNW 10.4 mph - N/A   Clear
4:12 PM 66.2 °F - 39.2 °F 37% 30.13 in 10.0 mi NNW 5.8 mph - N/A   Clear
4:32 PM 66.2 °F - 39.2 °F 37% 30.12 in 10.0 mi NW 5.8 mph - N/A   Clear
4:53 PM 66.2 °F - 39.2 °F 37% 30.13 in 10.0 mi North 8.1 mph - N/A   Clear
5:13 PM 66.2 °F - 37.4 °F 35% 30.13 in 10.0 mi NW 4.6 mph - N/A   Clear
5:33 PM 66.2 °F - 37.4 °F 35% 30.14 in 10.0 mi NNW 5.8 mph - N/A   Clear
5:53 PM 66.2 °F - 39.2 °F 37% 30.15 in 10.0 mi Calm Calm - N/A   Clear
6:13 PM 66.2 °F - 37.4 °F 35% 30.15 in 10.0 mi NNW 3.5 mph - N/A   Clear
6:33 PM 64.4 °F - 37.4 °F 37% 30.15 in 10.0 mi NW 5.8 mph - N/A   Clear
6:53 PM 64.4 °F - 39.2 °F 40% 30.15 in 10.0 mi NNW 5.8 mph - N/A   Clear
7:13 PM 62.6 °F - 41.0 °F 45% 30.16 in 10.0 mi NNW 4.6 mph - N/A   Clear
7:33 PM 60.8 °F - 41.0 °F 48% 30.16 in 10.0 mi NW 3.5 mph - N/A   Clear
7:53 PM 60.8 °F - 41.0 °F 48% 30.17 in 10.0 mi NW 3.5 mph - N/A   Clear
8:13 PM 59.0 °F - 41.0 °F 51% 30.17 in 10.0 mi Calm Calm - N/A   Clear
8:33 PM 55.4 °F - 42.8 °F 63% 30.18 in 10.0 mi North 3.5 mph - N/A   Clear
8:53 PM 55.4 °F - 44.6 °F 67% 30.19 in 10.0 mi NNE 4.6 mph - N/A   Clear
9:13 PM 55.4 °F - 44.6 °F 67% 30.20 in 10.0 mi North 3.5 mph - N/A   Clear
9:33 PM 51.8 °F - 44.6 °F 76% 30.20 in 10.0 mi NE 6.9 mph - N/A   Clear
9:53 PM 53.6 °F - 46.4 °F 77% 30.20 in 10.0 mi NNE 3.5 mph - N/A   Clear
10:13 PM 53.6 °F - 46.4 °F 77% 30.21 in 10.0 mi NNW 3.5 mph - N/A   Clear
10:33 PM 50.0 °F - 44.6 °F 82% 30.21 in 10.0 mi Calm Calm - N/A   Clear
10:53 PM 50.0 °F - 44.6 °F 82% 30.22 in 10.0 mi Calm Calm - N/A   Clear
11:13 PM 50.0 °F - 46.4 °F 87% 30.22 in 10.0 mi North 4.6 mph - N/A   Clear
11:33 PM 50.0 °F - 44.6 °F 82% 30.24 in 10.0 mi Calm Calm - N/A   Clear
11:53 PM 50.0 °F - 46.4 °F 87% 30.23 in 10.0 mi Calm Calm - N/A   Clear